Location: Sungai Bunut
(2.6333°N, 113.7333°E)
Time: 06:55:40
(UTC+00:00)

Vanguard 2 Rocket - Pass Details

Date: 07 December 2023
Orbit: 554 x 3310 km, 32.9° (Epoch: 25 February)

Event Time Altitude Azimuth Distance (km) Brightness Sun altitude
Rises 11:47:28 0° 313° (NW) 7,273 11.8 -22.0°
Reaches altitude 10° 11:53:19 10° 321° (NW) 6,130 11.3 -23.3°
Maximum altitude 12:09:51 38° 23° (NNE) 3,417 9.4 -27.1°
Enters shadow 12:12:14 37° 41° (NE) 3,318 9.2 -27.6°
